| time (UTC) | temp F | wind direction | speed MPH | gust MPH | rain 1hr in | rain 24hr in | rain mn in | humidity % | barometer mb |
| 20260831023503 | 81 | 0 | 0.0 | 0.0 | 0.00 | 0.00 | 0.00 | 53 | 1014.9 |
| 20260831023003 | 81 | 0 | 0.0 | 0.0 | 0.00 | 0.00 | 0.00 | 52 | 1014.8 |
| 20260831022503 | 81 | 0 | 0.0 | 0.0 | 0.00 | 0.00 | 0.00 | 52 | 1014.6 |
| 20260831022003 | 82 | 0 | 0.0 | 0.0 | 0.00 | 0.00 | 0.00 | 53 | 1014.6 |
| 20260831021503 | 82 | 0 | 0.0 | 0.0 | 0.00 | 0.00 | 0.00 | 52 | 1014.6 |
| 20260831021003 | 82 | 0 | 0.0 | 0.0 | 0.00 | 0.00 | 0.00 | 51 | 1014.5 |
| 20260831020503 | 83 | 0 | 0.0 | 0.0 | 0.00 | 0.00 | 0.00 | 52 | 1014.4 |
| 20260831020003 | 83 | 0 | 0.0 | 0.0 | 0.00 | 0.00 | 0.00 | 51 | 1014.3 |
| 20260831015503 | 83 | 0 | 0.0 | 0.0 | 0.00 | 0.00 | 0.00 | 51 | 1014.4 |
| 20260831015003 | 84 | 0 | 0.0 | 0.0 | 0.00 | 0.00 | 0.00 | 52 | 1014.4 |
| 20260831014503 | 84 | 0 | 0.0 | 0.0 | 0.00 | 0.00 | 0.00 | 51 | 1014.4 |
| 20260831014003 | 84 | 0 | 0.0 | 0.0 | 0.00 | 0.00 | 0.00 | 50 | 1014.4 |
| 20260831013503 | 84 | 0 | 0.0 | 0.0 | 0.00 | 0.00 | 0.00 | 48 | 1014.5 |
| 20260831013003 | 85 | 0 | 0.0 | 0.0 | 0.00 | 0.00 | 0.00 | 48 | 1014.4 |
| 20260831012503 | 85 | 0 | 0.0 | 0.0 | 0.00 | 0.00 | 0.00 | 47 | 1014.4 |
| 20260831012003 | 85 | 0 | 0.0 | 0.0 | 0.00 | 0.00 | 0.00 | 48 | 1014.4 |
| 20260831011503 | 86 | 0 | 0.0 | 0.0 | 0.00 | 0.00 | 0.00 | 48 | 1014.2 |
| 20260831011003 | 86 | 0 | 0.0 | 0.0 | 0.00 | 0.00 | 0.00 | 47 | 1014.0 |
| 20260831010503 | 87 | 0 | 0.0 | 0.0 | 0.00 | 0.00 | 0.00 | 47 | 1014.0 |
| 20260831010003 | 87 | 0 | 0.0 | 0.0 | 0.00 | 0.00 | 0.00 | 47 | 1013.9 |
| 20260831005503 | 88 | 0 | 0.0 | 0.0 | 0.00 | 0.00 | 0.00 | 46 | 1013.8 |
| 20260831005003 | 89 | 0 | 0.0 | 0.0 | 0.00 | 0.00 | 0.00 | 45 | 1013.7 |
| 20260831004503 | 89 | 0 | 0.0 | 0.0 | 0.00 | 0.00 | 0.00 | 45 | 1013.7 |
| 20260831004003 | 90 | 0 | 0.0 | 0.0 | 0.00 | 0.00 | 0.00 | 45 | 1013.7 |
| 20260831003503 | 90 | 0 | 0.0 | 0.0 | 0.00 | 0.00 | 0.00 | 44 | 1013.8 |
| 20260831003003 | 90 | 0 | 0.0 | 0.0 | 0.00 | 0.00 | 0.00 | 42 | 1013.9 |
| 20260831002503 | 91 | 0 | 0.0 | 0.0 | 0.00 | 0.00 | 0.00 | 42 | 1013.9 |
| 20260831002003 | 91 | 0 | 0.0 | 0.0 | 0.00 | 0.00 | 0.00 | 41 | 1013.9 |
| 20260831001503 | 91 | 0 | 0.0 | 0.0 | 0.00 | 0.00 | 0.00 | 42 | 1013.8 |
| 20260831001003 | 91 | 0 | 0.0 | 0.0 | 0.00 | 0.00 | 0.00 | 42 | 1013.9 |
| 20260831000503 | 91 | 0 | 0.0 | 0.0 | 0.00 | 0.00 | 0.00 | 40 | 1013.9 |
| 20260831000003 | 91 | 0 | 0.0 | 0.0 | 0.00 | 0.00 | 0.00 | 40 | 1013.9 |
| 20260830235503 | 92 | 0 | 0.0 | 0.0 | 0.00 | 0.00 | 0.00 | 38 | 1013.9 |
| 20260830235003 | 93 | 0 | 0.0 | 0.0 | 0.00 | 0.00 | 0.00 | 37 | 1013.8 |
| 20260830234503 | 94 | 0 | 0.0 | 0.0 | 0.00 | 0.00 | 0.00 | 36 | 1013.7 |
| 20260830234003 | 95 | 0 | 0.0 | 0.0 | 0.00 | 0.00 | 0.00 | 36 | 1013.7 |
| 20260830233503 | 95 | 0 | 0.0 | 0.0 | 0.00 | 0.00 | 0.00 | 35 | 1013.8 |
| 20260830233003 | 95 | 0 | 0.0 | 0.0 | 0.00 | 0.00 | 0.00 | 35 | 1013.7 |
| 20260830232503 | 96 | 100 | 0.0 | 1.0 | 0.00 | 0.00 | 0.00 | 35 | 1013.6 |
| 20260830232003 | 96 | 100 | 0.0 | 1.0 | 0.00 | 0.00 | 0.00 | 34 | 1013.6 |
| 20260830231503 | 96 | 111 | 0.0 | 1.0 | 0.00 | 0.00 | 0.00 | 34 | 1013.7 |
| 20260830231003 | 96 | 111 | 0.0 | 1.0 | 0.00 | 0.00 | 0.00 | 34 | 1013.6 |
| 20260830230503 | 97 | 113 | 0.0 | 1.0 | 0.00 | 0.00 | 0.00 | 35 | 1013.6 |
| 20260830230003 | 97 | 115 | 0.0 | 1.0 | 0.00 | 0.00 | 0.00 | 34 | 1013.5 |
| 20260830225503 | 96 | 128 | 0.0 | 1.0 | 0.00 | 0.00 | 0.00 | 35 | 1013.5 |
| 20260830225003 | 95 | 153 | 0.0 | 2.0 | 0.00 | 0.00 | 0.00 | 34 | 1013.6 |
| 20260830224503 | 94 | 159 | 0.0 | 2.0 | 0.00 | 0.00 | 0.00 | 35 | 1013.5 |
| 20260830224003 | 93 | 0 | 0.0 | 0.0 | 0.00 | 0.00 | 0.00 | 37 | 1013.4 |
| 20260830223503 | 93 | 0 | 0.0 | 0.0 | 0.00 | 0.00 | 0.00 | 39 | 1013.4 |
| 20260830223003 | 93 | 0 | 0.0 | 0.0 | 0.00 | 0.00 | 0.00 | 38 | 1013.4 |
| 20260830222503 | 93 | 117 | 0.0 | 1.0 | 0.00 | 0.00 | 0.00 | 37 | 1013.4 |
| 20260830222003 | 94 | 115 | 0.0 | 1.0 | 0.00 | 0.00 | 0.00 | 35 | 1013.3 |
| 20260830221503 | 95 | 115 | 0.0 | 1.0 | 0.00 | 0.00 | 0.00 | 34 | 1013.2 |
| 20260830221003 | 96 | 0 | 0.0 | 0.0 | 0.00 | 0.00 | 0.00 | 34 | 1013.3 |
| 20260830220503 | 97 | 160 | 0.0 | 2.0 | 0.00 | 0.00 | 0.00 | 33 | 1013.3 |
| 20260830220003 | 97 | 119 | 0.0 | 3.0 | 0.00 | 0.00 | 0.00 | 32 | 1013.3 |
| 20260830215503 | 97 | 172 | 1.0 | 4.0 | 0.00 | 0.00 | 0.00 | 31 | 1013.3 |
| 20260830215003 | 97 | 189 | 0.0 | 4.0 | 0.00 | 0.00 | 0.00 | 34 | 1013.4 |
| 20260830214503 | 96 | 0 | 0.0 | 0.0 | 0.00 | 0.00 | 0.00 | 33 | 1013.4 |
| 20260830214003 | 96 | 0 | 0.0 | 0.0 | 0.00 | 0.00 | 0.00 | 35 | 1013.5 |
| 20260830213503 | 96 | 5 | 0.0 | 1.0 | 0.00 | 0.00 | 0.00 | 35 | 1013.6 |
| 20260830213003 | 95 | 5 | 0.0 | 1.0 | 0.00 | 0.00 | 0.00 | 34 | 1013.6 |
| 20260830212503 | 95 | 5 | 0.0 | 2.0 | 0.00 | 0.00 | 0.00 | 34 | 1013.5 |
| 20260830212003 | 95 | 315 | 2.0 | 4.0 | 0.00 | 0.00 | 0.00 | 35 | 1013.6 |
| 20260830211503 | 95 | 329 | 3.0 | 6.0 | 0.00 | 0.00 | 0.00 | 33 | 1013.6 |
| 20260830211003 | 95 | 334 | 3.0 | 8.0 | 0.00 | 0.00 | 0.00 | 31 | 1013.5 |
| 20260830210503 | 95 | 316 | 2.0 | 8.0 | 0.00 | 0.00 | 0.00 | 32 | 1013.6 |
| 20260830210003 | 96 | 208 | 2.0 | 7.0 | 0.00 | 0.00 | 0.00 | 31 | 1013.7 |
| 20260830205503 | 96 | 186 | 4.0 | 8.0 | 0.00 | 0.00 | 0.00 | 31 | 1013.7 |
| 20260830205003 | 96 | 182 | 4.0 | 10.0 | 0.00 | 0.00 | 0.00 | 30 | 1013.7 |
| 20260830204503 | 97 | 177 | 2.0 | 10.0 | 0.00 | 0.00 | 0.00 | 31 | 1013.7 |
| 20260830204003 | 96 | 165 | 1.0 | 5.0 | 0.00 | 0.00 | 0.00 | 32 | 1013.7 |
| 20260830203503 | 96 | 34 | 0.0 | 2.0 | 0.00 | 0.00 | 0.00 | 34 | 1013.8 |
| 20260830203003 | 95 | 57 | 1.0 | 4.0 | 0.00 | 0.00 | 0.00 | 33 | 1013.9 |
| 20260830202503 | 96 | 144 | 1.0 | 8.0 | 0.00 | 0.00 | 0.00 | 36 | 1013.9 |
| 20260830202003 | 95 | 249 | 1.0 | 8.0 | 0.00 | 0.00 | 0.00 | 33 | 1013.9 |
| 20260830201503 | 95 | 280 | 1.0 | 4.0 | 0.00 | 0.00 | 0.00 | 32 | 1013.9 |
| 20260830201003 | 94 | 262 | 2.0 | 5.0 | 0.00 | 0.00 | 0.00 | 32 | 1014.0 |
| 20260830200503 | 94 | 280 | 2.0 | 5.0 | 0.00 | 0.00 | 0.00 | 33 | 1014.0 |
| 20260830200003 | 93 | 324 | 1.0 | 4.0 | 0.00 | 0.00 | 0.00 | 33 | 1014.0 |
| 20260830195503 | 93 | 337 | 0.0 | 3.0 | 0.00 | 0.00 | 0.00 | 36 | 1014.1 |
| 20260830195003 | 94 | 0 | 0.0 | 0.0 | 0.00 | 0.00 | 0.00 | 34 | 1014.2 |
| 20260830194503 | 94 | 0 | 0.0 | 0.0 | 0.00 | 0.00 | 0.00 | 33 | 1014.1 |
| 20260830194003 | 93 | 20 | 1.0 | 3.0 | 0.00 | 0.00 | 0.00 | 37 | 1014.1 |
| 20260830193503 | 93 | 20 | 1.0 | 3.0 | 0.00 | 0.00 | 0.00 | 33 | 1014.1 |
| 20260830193003 | 93 | 20 | 0.0 | 3.0 | 0.00 | 0.00 | 0.00 | 37 | 1014.1 |
| 20260830192503 | 93 | 20 | 0.0 | 3.0 | 0.00 | 0.00 | 0.00 | 35 | 1014.2 |
| 20260830192003 | 93 | 20 | 0.0 | 1.0 | 0.00 | 0.00 | 0.00 | 36 | 1014.2 |
| 20260830191503 | 93 | 17 | 0.0 | 2.0 | 0.00 | 0.00 | 0.00 | 37 | 1014.2 |
| 20260830191003 | 92 | 9 | 0.0 | 3.0 | 0.00 | 0.00 | 0.00 | 35 | 1014.2 |
| 20260830190503 | 92 | 2 | 1.0 | 3.0 | 0.00 | 0.00 | 0.00 | 33 | 1014.2 |
| 20260830190003 | 91 | 11 | 1.0 | 3.0 | 0.00 | 0.00 | 0.00 | 36 | 1014.3 |
| 20260830185503 | 90 | 324 | 2.0 | 7.0 | 0.00 | 0.00 | 0.00 | 37 | 1014.2 |
| 20260830185003 | 90 | 313 | 2.0 | 7.0 | 0.00 | 0.00 | 0.00 | 37 | 1014.2 |
| 20260830184503 | 90 | 334 | 1.0 | 6.0 | 0.00 | 0.00 | 0.00 | 36 | 1014.3 |
| 20260830184003 | 90 | 334 | 1.0 | 4.0 | 0.00 | 0.00 | 0.00 | 39 | 1014.4 |
| 20260830183503 | 89 | 326 | 3.0 | 7.0 | 0.00 | 0.00 | 0.00 | 40 | 1014.4 |
| 20260830183003 | 88 | 332 | 2.0 | 7.0 | 0.00 | 0.00 | 0.00 | 39 | 1014.4 |
| 20260830182503 | 88 | 350 | 1.0 | 6.0 | 0.00 | 0.00 | 0.00 | 38 | 1014.5 |
| 20260830182003 | 88 | 9 | 2.0 | 5.0 | 0.00 | 0.00 | 0.00 | 40 | 1014.6 |
| 20260830181503 | 88 | 12 | 2.0 | 5.0 | 0.00 | 0.00 | 0.00 | 40 | 1014.6 |
| 20260830181003 | 89 | 4 | 2.0 | 5.0 | 0.00 | 0.00 | 0.00 | 41 | 1014.6 |
| 20260830180503 | 88 | 352 | 2.0 | 5.0 | 0.00 | 0.00 | 0.00 | 43 | 1014.6 |
| 20260830180003 | 87 | 342 | 3.0 | 9.0 | 0.00 | 0.00 | 0.00 | 44 | 1014.7 |
| 20260830175503 | 87 | 333 | 3.0 | 9.0 | 0.00 | 0.00 | 0.00 | 44 | 1014.7 |
| 20260830175003 | 88 | 340 | 2.0 | 9.0 | 0.00 | 0.00 | 0.00 | 41 | 1014.7 |
| 20260830174503 | 88 | 328 | 3.0 | 8.0 | 0.00 | 0.00 | 0.00 | 43 | 1014.7 |
| 20260830174003 | 88 | 322 | 5.0 | 11.0 | 0.00 | 0.00 | 0.00 | 44 | 1014.7 |
| 20260830173503 | 88 | 329 | 5.0 | 11.0 | 0.00 | 0.00 | 0.00 | 44 | 1015.0 |
| 20260830173003 | 87 | 342 | 4.0 | 10.0 | 0.00 | 0.00 | 0.00 | 45 | 1014.9 |
| 20260830172503 | 87 | 328 | 5.0 | 13.0 | 0.00 | 0.00 | 0.00 | 45 | 1015.0 |
| 20260830172003 | 87 | 319 | 6.0 | 13.0 | 0.00 | 0.00 | 0.00 | 45 | 1015.0 |
| 20260830171503 | 87 | 325 | 5.0 | 10.0 | 0.00 | 0.00 | 0.00 | 45 | 1015.1 |
| 20260830171003 | 86 | 319 | 5.0 | 10.0 | 0.00 | 0.00 | 0.00 | 45 | 1015.1 |
| 20260830170503 | 86 | 325 | 5.0 | 11.0 | 0.00 | 0.00 | 0.00 | 46 | 1015.2 |
| 20260830170003 | 86 | 333 | 5.0 | 11.0 | 0.00 | 0.00 | 0.00 | 45 | 1015.2 |
| 20260830165503 | 85 | 331 | 5.0 | 11.0 | 0.00 | 0.00 | 0.00 | 47 | 1015.1 |
| 20260830165003 | 84 | 342 | 3.0 | 9.0 | 0.00 | 0.00 | 0.00 | 49 | 1015.0 |
| 20260830164503 | 84 | 336 | 3.0 | 9.0 | 0.00 | 0.00 | 0.00 | 49 | 1015.0 |
| 20260830164003 | 83 | 327 | 4.0 | 9.0 | 0.00 | 0.00 | 0.00 | 51 | 1015.1 |
| 20260830163503 | 82 | 331 | 4.0 | 9.0 | 0.00 | 0.00 | 0.00 | 51 | 1015.1 |
| 20260830163003 | 81 | 331 | 4.0 | 8.0 | 0.00 | 0.00 | 0.00 | 52 | 1015.3 |
| 20260830162503 | 80 | 344 | 4.0 | 11.0 | 0.00 | 0.00 | 0.00 | 53 | 1015.2 |
| 20260830162003 | 80 | 351 | 4.0 | 11.0 | 0.00 | 0.00 | 0.00 | 54 | 1014.7 |
| 20260830161503 | 80 | 333 | 4.0 | 8.0 | 0.00 | 0.00 | 0.00 | 56 | 1014.9 |
| 20260830161004 | 80 | 323 | 4.0 | 10.0 | 0.00 | 0.00 | 0.00 | 55 | 1015.3 |
| 20260830160503 | 79 | 329 | 5.0 | 11.0 | 0.00 | 0.00 | 0.00 | 55 | 1015.5 |
| 20260830160003 | 78 | 332 | 5.0 | 11.0 | 0.00 | 0.00 | 0.00 | 57 | 1015.4 |
| 20260830155503 | 78 | 323 | 5.0 | 10.0 | 0.00 | 0.00 | 0.00 | 57 | 1015.5 |
| 20260830155003 | 78 | 320 | 5.0 | 10.0 | 0.00 | 0.00 | 0.00 | 58 | 1015.7 |
| 20260830154503 | 77 | 316 | 4.0 | 9.0 | 0.00 | 0.00 | 0.00 | 61 | 1015.6 |
| 20260830154003 | 76 | 314 | 3.0 | 9.0 | 0.00 | 0.00 | 0.00 | 61 | 1015.6 |
| 20260830153503 | 76 | 317 | 3.0 | 7.0 | 0.00 | 0.00 | 0.00 | 62 | 1015.3 |
| 20260830153003 | 75 | 327 | 3.0 | 8.0 | 0.00 | 0.00 | 0.00 | 64 | 1015.2 |
| 20260830152503 | 75 | 334 | 3.0 | 9.0 | 0.00 | 0.00 | 0.00 | 65 | 1014.8 |
| 20260830152003 | 74 | 334 | 4.0 | 9.0 | 0.00 | 0.00 | 0.00 | 65 | 1014.9 |
| 20260830151503 | 74 | 326 | 3.0 | 9.0 | 0.00 | 0.00 | 0.00 | 66 | 1014.9 |
| 20260830151003 | 74 | 301 | 3.0 | 9.0 | 0.00 | 0.00 | 0.00 | 67 | 1015.3 |
| 20260830150503 | 73 | 300 | 3.0 | 9.0 | 0.00 | 0.00 | 0.00 | 68 | 1015.3 |
| 20260830150003 | 73 | 315 | 4.0 | 10.0 | 0.00 | 0.00 | 0.00 | 69 | 1015.1 |
| 20260830145503 | 73 | 322 | 4.0 | 10.0 | 0.00 | 0.00 | 0.00 | 69 | 1015.0 |
| 20260830145003 | 72 | 337 | 3.0 | 10.0 | 0.00 | 0.00 | 0.00 | 69 | 1014.6 |
| 20260830144503 | 72 | 346 | 3.0 | 10.0 | 0.00 | 0.00 | 0.00 | 70 | 1014.2 |
| 20260830144003 | 72 | 347 | 3.0 | 8.0 | 0.00 | 0.00 | 0.00 | 70 | 1014.2 |
| 20260830143503 | 72 | 333 | 3.0 | 8.0 | 0.00 | 0.00 | 0.00 | 72 | 1014.3 |
| 20260830143003 | 72 | 324 | 4.0 | 9.0 | 0.00 | 0.00 | 0.00 | 72 | 1014.7 |
| 20260830142503 | 71 | 321 | 4.0 | 9.0 | 0.00 | 0.00 | 0.00 | 73 | 1014.6 |
| 20260830142003 | 71 | 313 | 4.0 | 9.0 | 0.00 | 0.00 | 0.00 | 74 | 1014.6 |
| 20260830141503 | 71 | 312 | 4.0 | 9.0 | 0.00 | 0.00 | 0.00 | 74 | 1014.6 |
| 20260830141003 | 70 | 311 | 3.0 | 8.0 | 0.00 | 0.00 | 0.00 | 75 | 1014.5 |
| 20260830140503 | 70 | 305 | 2.0 | 5.0 | 0.00 | 0.00 | 0.00 | 76 | 1014.5 |
| 20260830140003 | 70 | 300 | 2.0 | 7.0 | 0.00 | 0.00 | 0.00 | 76 | 1014.4 |
| 20260830135503 | 69 | 295 | 3.0 | 7.0 | 0.00 | 0.00 | 0.00 | 77 | 1014.5 |
| 20260830135003 | 69 | 291 | 4.0 | 9.0 | 0.00 | 0.00 | 0.00 | 78 | 1014.4 |
| 20260830134503 | 68 | 288 | 4.0 | 9.0 | 0.00 | 0.00 | 0.00 | 78 | 1014.5 |
| 20260830134003 | 68 | 291 | 3.0 | 8.0 | 0.00 | 0.00 | 0.00 | 79 | 1014.3 |
| 20260830133503 | 67 | 295 | 3.0 | 7.0 | 0.00 | 0.00 | 0.00 | 81 | 1014.2 |
| 20260830133003 | 66 | 292 | 3.0 | 7.0 | 0.00 | 0.00 | 0.00 | 81 | 1014.2 |
| 20260830132503 | 66 | 290 | 2.0 | 7.0 | 0.00 | 0.00 | 0.00 | 81 | 1014.2 |
| 20260830132003 | 66 | 292 | 1.0 | 5.0 | 0.00 | 0.00 | 0.00 | 82 | 1014.2 |
| 20260830131503 | 66 | 289 | 2.0 | 6.0 | 0.00 | 0.00 | 0.00 | 82 | 1014.1 |
| 20260830131003 | 66 | 292 | 2.0 | 7.0 | 0.00 | 0.00 | 0.00 | 82 | 1014.1 |
| 20260830130503 | 66 | 293 | 3.0 | 7.0 | 0.00 | 0.00 | 0.00 | 82 | 1013.9 |
| 20260830130003 | 66 | 293 | 3.0 | 6.0 | 0.00 | 0.00 | 0.00 | 82 | 1013.8 |
| 20260830125503 | 66 | 290 | 2.0 | 4.0 | 0.00 | 0.00 | 0.00 | 83 | 1013.7 |
| 20260830125003 | 65 | 281 | 1.0 | 3.0 | 0.00 | 0.00 | 0.00 | 83 | 1013.6 |
| 20260830124503 | 65 | 282 | 1.0 | 4.0 | 0.00 | 0.00 | 0.00 | 83 | 1013.5 |
| 20260830124003 | 65 | 291 | 2.0 | 6.0 | 0.00 | 0.00 | 0.00 | 83 | 1013.4 |
| 20260830123503 | 65 | 288 | 2.0 | 6.0 | 0.00 | 0.00 | 0.00 | 84 | 1013.5 |
| 20260830123003 | 65 | 273 | 2.0 | 5.0 | 0.00 | 0.00 | 0.00 | 83 | 1013.6 |
| 20260830122503 | 65 | 258 | 1.0 | 4.0 | 0.00 | 0.00 | 0.00 | 83 | 1013.6 |
| 20260830122003 | 65 | 267 | 2.0 | 6.0 | 0.00 | 0.00 | 0.00 | 83 | 1013.5 |
| 20260830121503 | 65 | 278 | 3.0 | 7.0 | 0.00 | 0.00 | 0.00 | 83 | 1013.6 |
| 20260830121003 | 65 | 284 | 3.0 | 8.0 | 0.00 | 0.00 | 0.00 | 83 | 1013.6 |
| 20260830120503 | 65 | 293 | 3.0 | 8.0 | 0.00 | 0.00 | 0.00 | 83 | 1013.4 |
| 20260830120003 | 65 | 303 | 3.0 | 8.0 | 0.00 | 0.00 | 0.00 | 83 | 1013.2 |
| 20260830115503 | 65 | 303 | 2.0 | 5.0 | 0.00 | 0.00 | 0.00 | 83 | 1013.1 |
| 20260830115003 | 65 | 291 | 3.0 | 6.0 | 0.00 | 0.00 | 0.00 | 83 | 1013.2 |
| 20260830114503 | 65 | 278 | 2.0 | 6.0 | 0.00 | 0.00 | 0.00 | 83 | 1013.3 |
| 20260830114003 | 66 | 273 | 2.0 | 6.0 | 0.00 | 0.00 | 0.00 | 83 | 1013.4 |
| 20260830113503 | 66 | 285 | 2.0 | 6.0 | 0.00 | 0.00 | 0.00 | 83 | 1013.4 |
| 20260830113003 | 66 | 287 | 1.0 | 5.0 | 0.00 | 0.00 | 0.00 | 83 | 1013.3 |
| 20260830112503 | 66 | 294 | 2.0 | 4.0 | 0.00 | 0.00 | 0.00 | 83 | 1013.4 |
| 20260830112003 | 66 | 291 | 2.0 | 4.0 | 0.00 | 0.00 | 0.00 | 83 | 1013.3 |
| 20260830111503 | 66 | 277 | 1.0 | 4.0 | 0.00 | 0.00 | 0.00 | 83 | 1013.3 |
| 20260830111003 | 66 | 281 | 2.0 | 6.0 | 0.00 | 0.00 | 0.00 | 83 | 1013.2 |
| 20260830110503 | 66 | 285 | 1.0 | 6.0 | 0.00 | 0.00 | 0.00 | 83 | 1013.2 |
| 20260830110004 | 66 | 285 | 2.0 | 6.0 | 0.00 | 0.00 | 0.00 | 83 | 1013.3 |
| 20260830105503 | 66 | 285 | 1.0 | 6.0 | 0.00 | 0.00 | 0.00 | 83 | 1013.2 |
| 20260830105003 | 66 | 282 | 1.0 | 3.0 | 0.00 | 0.00 | 0.00 | 82 | 1013.1 |
| 20260830104503 | 66 | 283 | 1.0 | 4.0 | 0.00 | 0.00 | 0.00 | 82 | 1013.2 |
| 20260830104003 | 66 | 284 | 2.0 | 4.0 | 0.00 | 0.00 | 0.00 | 82 | 1013.2 |
| 20260830103503 | 66 | 301 | 2.0 | 5.0 | 0.00 | 0.00 | 0.00 | 82 | 1013.2 |
| 20260830103003 | 66 | 308 | 2.0 | 7.0 | 0.00 | 0.00 | 0.00 | 82 | 1013.2 |
| 20260830102503 | 66 | 311 | 2.0 | 7.0 | 0.00 | 0.00 | 0.00 | 82 | 1013.0 |
| 20260830102003 | 66 | 313 | 2.0 | 4.0 | 0.00 | 0.00 | 0.00 | 82 | 1013.0 |
| 20260830101503 | 66 | 311 | 3.0 | 8.0 | 0.00 | 0.00 | 0.00 | 82 | 1013.0 |
| 20260830101003 | 66 | 316 | 3.0 | 8.0 | 0.00 | 0.00 | 0.00 | 82 | 1013.0 |
| 20260830100503 | 67 | 310 | 3.0 | 7.0 | 0.00 | 0.00 | 0.00 | 82 | 1012.9 |
| 20260830100003 | 67 | 298 | 2.0 | 6.0 | 0.00 | 0.00 | 0.00 | 82 | 1013.0 |
| 20260830095503 | 67 | 308 | 3.0 | 6.0 | 0.00 | 0.00 | 0.00 | 81 | 1013.2 |
| 20260830095003 | 67 | 313 | 3.0 | 6.0 | 0.00 | 0.00 | 0.00 | 81 | 1013.1 |
| 20260830094503 | 67 | 313 | 2.0 | 6.0 | 0.00 | 0.00 | 0.00 | 81 | 1013.1 |
| 20260830094003 | 67 | 313 | 2.0 | 4.0 | 0.00 | 0.00 | 0.00 | 81 | 1013.0 |
| 20260830093503 | 67 | 309 | 2.0 | 5.0 | 0.00 | 0.00 | 0.00 | 81 | 1013.1 |
| 20260830093003 | 67 | 304 | 3.0 | 8.0 | 0.00 | 0.00 | 0.00 | 81 | 1013.1 |
| 20260830092503 | 67 | 301 | 4.0 | 8.0 | 0.00 | 0.00 | 0.00 | 81 | 1013.3 |
| 20260830092003 | 67 | 306 | 4.0 | 8.0 | 0.00 | 0.00 | 0.00 | 80 | 1013.3 |
| 20260830091503 | 68 | 309 | 3.0 | 6.0 | 0.00 | 0.00 | 0.00 | 80 | 1013.3 |
| 20260830091003 | 68 | 306 | 3.0 | 7.0 | 0.00 | 0.00 | 0.00 | 80 | 1013.3 |
| 20260830090503 | 68 | 306 | 4.0 | 8.0 | 0.00 | 0.00 | 0.00 | 80 | 1013.2 |
| 20260830090004 | 68 | 308 | 4.0 | 9.0 | 0.00 | 0.00 | 0.00 | 79 | 1013.3 |
| 20260830085503 | 68 | 315 | 4.0 | 9.0 | 0.00 | 0.00 | 0.00 | 79 | 1013.2 |
| 20260830085003 | 68 | 313 | 3.0 | 8.0 | 0.00 | 0.00 | 0.00 | 78 | 1013.1 |
| 20260830084503 | 69 | 303 | 3.0 | 8.0 | 0.00 | 0.00 | 0.00 | 78 | 1013.4 |
| 20260830084003 | 69 | 305 | 3.0 | 8.0 | 0.00 | 0.00 | 0.00 | 77 | 1013.4 |
| 20260830083503 | 69 | 314 | 3.0 | 8.0 | 0.00 | 0.00 | 0.00 | 77 | 1013.4 |
| 20260830083003 | 70 | 316 | 3.0 | 8.0 | 0.00 | 0.00 | 0.00 | 76 | 1013.4 |
| 20260830082503 | 70 | 306 | 3.0 | 7.0 | 0.00 | 0.00 | 0.00 | 76 | 1013.5 |
| 20260830082003 | 70 | 309 | 3.0 | 9.0 | 0.00 | 0.00 | 0.00 | 75 | 1013.6 |
| 20260830081503 | 70 | 314 | 4.0 | 9.0 | 0.00 | 0.00 | 0.00 | 74 | 1013.4 |
| 20260830081003 | 71 | 321 | 4.0 | 8.0 | 0.00 | 0.00 | 0.00 | 73 | 1013.3 |
| 20260830080503 | 71 | 336 | 3.0 | 7.0 | 0.00 | 0.00 | 0.00 | 72 | 1013.1 |
| 20260830080003 | 71 | 345 | 2.0 | 5.0 | 0.00 | 0.00 | 0.00 | 72 | 1013.1 |
| 20260830075503 | 71 | 342 | 1.0 | 4.0 | 0.00 | 0.00 | 0.00 | 72 | 1013.0 |
| 20260830075003 | 72 | 355 | 1.0 | 3.0 | 0.00 | 0.00 | 0.00 | 71 | 1013.1 |
| 20260830074503 | 72 | 4 | 0.0 | 3.0 | 0.00 | 0.00 | 0.00 | 71 | 1013.0 |
| 20260830074003 | 72 | 24 | 0.0 | 3.0 | 0.00 | 0.00 | 0.00 | 71 | 1013.2 |
| 20260830073503 | 72 | 18 | 1.0 | 4.0 | 0.00 | 0.00 | 0.00 | 70 | 1013.2 |
| 20260830073003 | 72 | 17 | 1.0 | 4.0 | 0.00 | 0.00 | 0.00 | 70 | 1013.4 |
| 20260830072503 | 72 | 26 | 1.0 | 3.0 | 0.00 | 0.00 | 0.00 | 70 | 1013.5 |
| 20260830072003 | 72 | 38 | 0.0 | 3.0 | 0.00 | 0.00 | 0.00 | 69 | 1013.5 |
| 20260830071503 | 73 | 38 | 0.0 | 2.0 | 0.00 | 0.00 | 0.00 | 69 | 1013.7 |
| 20260830071003 | 73 | 37 | 0.0 | 3.0 | 0.00 | 0.00 | 0.00 | 68 | 1013.7 |
| 20260830070503 | 73 | 29 | 1.0 | 4.0 | 0.00 | 0.00 | 0.00 | 68 | 1013.7 |
| 20260830070003 | 73 | 32 | 2.0 | 5.0 | 0.00 | 0.00 | 0.00 | 68 | 1013.8 |
| 20260830065503 | 73 | 34 | 1.0 | 5.0 | 0.00 | 0.00 | 0.00 | 68 | 1013.8 |
| 20260830065003 | 73 | 33 | 2.0 | 5.0 | 0.00 | 0.00 | 0.00 | 68 | 1013.7 |
| 20260830064503 | 73 | 31 | 2.0 | 6.0 | 0.00 | 0.00 | 0.00 | 68 | 1013.8 |
| 20260830064003 | 74 | 30 | 2.0 | 6.0 | 0.00 | 0.00 | 0.00 | 67 | 1013.8 |
| 20260830063503 | 74 | 17 | 2.0 | 6.0 | 0.00 | 0.00 | 0.00 | 67 | 1013.9 |
| 20260830063003 | 74 | 345 | 2.0 | 6.0 | 0.00 | 0.00 | 0.00 | 67 | 1014.0 |
| 20260830062503 | 74 | 349 | 2.0 | 8.0 | 0.00 | 0.00 | 0.00 | 66 | 1014.0 |
| 20260830062003 | 75 | 7 | 3.0 | 11.0 | 0.00 | 0.00 | 0.00 | 65 | 1014.1 |
| 20260830061503 | 75 | 18 | 4.0 | 13.0 | 0.00 | 0.00 | 0.00 | 65 | 1014.0 |
| 20260830061003 | 75 | 25 | 4.0 | 13.0 | 0.00 | 0.00 | 0.00 | 64 | 1014.0 |
| 20260830060503 | 76 | 16 | 4.0 | 10.0 | 0.00 | 0.00 | 0.00 | 62 | 1013.9 |
| 20260830060003 | 76 | 358 | 4.0 | 10.0 | 0.00 | 0.00 | 0.00 | 61 | 1014.1 |
| 20260830055503 | 77 | 12 | 3.0 | 10.0 | 0.00 | 0.00 | 0.00 | 60 | 1013.9 |
| 20260830055003 | 77 | 8 | 5.0 | 14.0 | 0.00 | 0.00 | 0.00 | 59 | 1014.0 |
| 20260830054503 | 78 | 355 | 7.0 | 15.0 | 0.00 | 0.00 | 0.00 | 57 | 1013.9 |
| 20260830054003 | 80 | 329 | 7.0 | 15.0 | 0.00 | 0.00 | 0.00 | 55 | 1013.7 |
| 20260830053503 | 80 | 311 | 7.0 | 12.0 | 0.00 | 0.00 | 0.00 | 55 | 1013.9 |
| 20260830053003 | 80 | 306 | 5.0 | 11.0 | 0.00 | 0.00 | 0.00 | 54 | 1013.7 |
| 20260830052503 | 80 | 293 | 5.0 | 14.0 | 0.00 | 0.00 | 0.00 | 54 | 1013.5 |
| 20260830052003 | 80 | 296 | 6.0 | 16.0 | 0.00 | 0.00 | 0.00 | 54 | 1013.6 |
| 20260830051503 | 80 | 254 | 6.0 | 16.0 | 0.00 | 0.00 | 0.00 | 55 | 1013.7 |
| 20260830051003 | 81 | 180 | 5.0 | 10.0 | 0.00 | 0.00 | 0.00 | 54 | 1012.3 |
| 20260830050503 | 81 | 176 | 5.0 | 9.0 | 0.00 | 0.00 | 0.00 | 54 | 1012.2 |
| 20260830050004 | 81 | 175 | 5.0 | 9.0 | 0.00 | 0.00 | 0.00 | 53 | 1012.1 |
| 20260830045503 | 82 | 171 | 5.0 | 11.0 | 0.00 | 0.00 | 0.00 | 53 | 1012.0 |
| 20260830045003 | 82 | 167 | 5.0 | 11.0 | 0.00 | 0.00 | 0.00 | 52 | 1011.6 |
| 20260830044503 | 82 | 176 | 4.0 | 10.0 | 0.00 | 0.00 | 0.00 | 51 | 1011.7 |
| 20260830044003 | 82 | 190 | 3.0 | 7.0 | 0.00 | 0.00 | 0.00 | 51 | 1011.8 |
| 20260830043503 | 82 | 188 | 4.0 | 10.0 | 0.00 | 0.00 | 0.00 | 51 | 1011.9 |
| 20260830043003 | 82 | 179 | 4.0 | 10.0 | 0.00 | 0.00 | 0.00 | 51 | 1011.9 |
| 20260830042503 | 83 | 179 | 3.0 | 8.0 | 0.00 | 0.00 | 0.00 | 50 | 1012.1 |
| 20260830042003 | 84 | 188 | 4.0 | 10.0 | 0.00 | 0.00 | 0.00 | 49 | 1012.0 |
| 20260830041503 | 84 | 182 | 5.0 | 10.0 | 0.00 | 0.00 | 0.00 | 49 | 1011.8 |
| 20260830041003 | 84 | 176 | 5.0 | 10.0 | 0.00 | 0.00 | 0.00 | 49 | 1011.7 |
| 20260830040503 | 84 | 176 | 5.0 | 10.0 | 0.00 | 0.00 | 0.00 | 48 | 1011.8 |
| 20260830040003 | 85 | 177 | 5.0 | 10.0 | 0.00 | 0.00 | 0.00 | 48 | 1012.0 |
| 20260830035503 | 85 | 178 | 4.0 | 9.0 | 0.00 | 0.00 | 0.00 | 47 | 1011.8 |
| 20260830035003 | 85 | 178 | 5.0 | 11.0 | 0.00 | 0.00 | 0.00 | 47 | 1011.8 |
| 20260830034503 | 85 | 177 | 5.0 | 11.0 | 0.00 | 0.00 | 0.00 | 47 | 1011.8 |
| 20260830034003 | 86 | 180 | 5.0 | 11.0 | 0.00 | 0.00 | 0.00 | 46 | 1011.9 |
| 20260830033503 | 86 | 179 | 5.0 | 11.0 | 0.00 | 0.00 | 0.00 | 46 | 1011.8 |
| 20260830033003 | 86 | 178 | 6.0 | 10.0 | 0.00 | 0.00 | 0.00 | 46 | 1011.9 |
| 20260830032503 | 86 | 179 | 6.0 | 12.0 | 0.00 | 0.00 | 0.00 | 45 | 1011.8 |
| 20260830032003 | 86 | 176 | 6.0 | 14.0 | 0.00 | 0.00 | 0.00 | 45 | 1011.8 |
| 20260830031503 | 87 | 175 | 5.0 | 14.0 | 0.00 | 0.00 | 0.00 | 45 | 1011.8 |
| 20260830031003 | 87 | 174 | 5.0 | 12.0 | 0.00 | 0.00 | 0.00 | 45 | 1011.8 |
| 20260830030503 | 87 | 174 | 5.0 | 13.0 | 0.00 | 0.00 | 0.00 | 45 | 1011.9 |
| 20260830030003 | 86 | 175 | 5.0 | 13.0 | 0.00 | 0.00 | 0.00 | 45 | 1011.9 |
| 20260830025503 | 86 | 177 | 4.0 | 11.0 | 0.00 | 0.00 | 0.00 | 46 | 1011.8 |
| 20260830025003 | 85 | 178 | 3.0 | 11.0 | 0.00 | 0.00 | 0.00 | 48 | 1011.7 |
| 20260830024503 | 83 | 176 | 1.0 | 7.0 | 0.00 | 0.00 | 0.00 | 50 | 1011.7 |
| 20260830024003 | 83 | 200 | 0.0 | 2.0 | 0.00 | 0.00 | 0.00 | 53 | 1011.7 |